New Deal, TX

7:51 PM CDT on August 26, 2016 (GMT -0500)
Lubbock International

Weather History for KLBB - September, 2012

Change the Weather History Date:

Wednesday, September 12, 2012

  Actual Average Record
Temperature  
Mean Temperature 74 °F 73 °F  
Max Temperature 87 °F 86 °F 100 °F (1930)
Min Temperature 61 °F 60 °F 44 °F (1959)
Degree Days  
Heating Degree Days 0 0  
Month to date heating degree days 0 0  
Since 1 July heating degree days 0 0  
Cooling Degree Days 9 8  
Month to date cooling degree days 161 118  
Year to date cooling degree days 2143 1644  
Growing Degree Days 28 (Base 50)    
Moisture  
Dew Point 53 °F    
Average Humidity 58    
Maximum Humidity 81    
Minimum Humidity 35    
Precipitation  
Precipitation 0.20 in 0.08 in 2.35 in (1989)
Month to date precipitation 0.40 1.03  
Year to date precipitation 8.82 14.10  
Snow  
Snow 0.00 in 0.00 in 0.00 in (2002)
Month to date snowfall 0.0 0.0  
Since 1 July snowfall 0.0 0.0  
Since 1 September snowfall 0.0 0.0  
Snow Depth 0.00 in    
Sea Level Pressure  
Sea Level Pressure 29.89 in    
Wind  
Wind Speed 11 mph (South)    
Max Wind Speed 23 mph    
Max Gust Speed 29 mph    
Visibility 10 miles    
Events Rain , Thunderstorm    
T = Trace of Precipitation, MM = Missing Value Source: NWS Daily Summary

Daily Weather History Graph

Daily Weather History Graph

Search for Another Location

Airport or City:

Trip Planner

Search our weather history database for the weather conditions in past years. The results will help you decide how hot, cold, wet, or windy it might be!

Date:

Astronomy

Sep. 12, 2012 Rise Set
Actual Time 7:28 AM CDT 7:57 PM CDT
Civil Twilight 7:03 AM CDT 8:22 PM CDT
Nautical Twilight 6:34 AM CDT 8:51 PM CDT
Astronomical Twilight 6:04 AM CDT 9:21 PM CDT
Moon 3:56 AM CDT (9/12) 5:39 PM CDT (9/12)
Length of Visible Light 13h 18m
Length of Day
12h 28m
Waning Crescent, 13% of the Moon is Illuminated
Sep 12
Waning Crescent
Sep 15
New
Sep 22
First Quarter
Sep 29
Full
Oct 8
Last Quarter

Hourly Weather History & Observations

Time (CDT) Temp. Heat Index Dew Point Humidity Pressure Visibility Wind Dir Wind Speed Gust Speed Precip Events Conditions
12:53 AM 72.0 °F - 46.0 °F 40% 29.87 in 10.0 mi SSE 8.1 mph - N/A   Partly Cloudy
1:53 AM 73.0 °F - 46.9 °F 39% 29.87 in 10.0 mi South 9.2 mph - N/A   Partly Cloudy
2:53 AM 73.9 °F - 46.9 °F 38% 29.85 in 10.0 mi SSW 11.5 mph - N/A   Partly Cloudy
3:53 AM 75.0 °F - 46.9 °F 37% 29.83 in 10.0 mi SSW 15.0 mph 21.9 mph N/A   Scattered Clouds
4:53 AM 73.0 °F - 48.0 °F 41% 29.84 in 10.0 mi SSW 11.5 mph - N/A   Scattered Clouds
5:53 AM 72.0 °F - 46.9 °F 41% 29.85 in 10.0 mi SSW 12.7 mph - N/A   Partly Cloudy
6:53 AM 71.1 °F - 48.0 °F 44% 29.86 in 10.0 mi SSW 9.2 mph - N/A   Mostly Cloudy
7:53 AM 72.0 °F - 48.0 °F 43% 29.87 in 10.0 mi South 5.8 mph - N/A   Mostly Cloudy
8:53 AM 70.0 °F - 51.1 °F 51% 29.90 in 10.0 mi South 6.9 mph - 0.00 in   Mostly Cloudy
9:53 AM 72.0 °F - 50.0 °F 46% 29.91 in 10.0 mi South 8.1 mph - 0.00 in   Mostly Cloudy
10:53 AM 73.9 °F - 48.0 °F 40% 29.91 in 10.0 mi SW 9.2 mph - N/A   Mostly Cloudy
11:53 AM 75.0 °F - 51.1 °F 43% 29.92 in 10.0 mi South 9.2 mph - N/A   Mostly Cloudy
12:53 PM 79.0 °F - 50.0 °F 36% 29.91 in 10.0 mi South 9.2 mph - N/A   Mostly Cloudy
1:53 PM 79.0 °F - 55.9 °F 45% 29.90 in 10.0 mi SE 15.0 mph - 0.01 in   Mostly Cloudy
2:53 PM 82.9 °F 82.0 °F 55.0 °F 38% 29.86 in 10.0 mi SE 17.3 mph - N/A   Scattered Clouds
3:53 PM 86.0 °F 84.5 °F 55.0 °F 35% 29.83 in 10.0 mi SSE 17.3 mph 24.2 mph N/A   Scattered Clouds
4:53 PM 82.9 °F 82.1 °F 55.9 °F 39% 29.84 in 10.0 mi South 17.3 mph - N/A   Mostly Cloudy
5:53 PM 80.1 °F 80.6 °F 57.9 °F 47% 29.87 in 10.0 mi South 18.4 mph - N/A   Mostly Cloudy
6:53 PM 79.0 °F - 60.1 °F 52% 29.87 in 10.0 mi SE 6.9 mph - N/A   Mostly Cloudy
7:53 PM 78.1 °F - 60.1 °F 54% 29.88 in 10.0 mi SE 9.2 mph - N/A   Mostly Cloudy
8:53 PM 75.0 °F - 59.0 °F 57% 29.91 in 10.0 mi SE 6.9 mph - 0.00 in Rain Light Rain
9:53 PM 73.0 °F - 60.1 °F 64% 29.93 in 10.0 mi Calm Calm - 0.00 in   Mostly Cloudy
10:37 PM 73.4 °F - 57.2 °F 57% 30.09 in 10.0 mi West 5.8 mph - N/A Thunderstorm Thunderstorm
10:53 PM 73.0 °F - 59.0 °F 61% 29.96 in 10.0 mi Calm Calm - N/A Thunderstorm Thunderstorm
11:53 PM 68.0 °F - 63.0 °F 84% 29.99 in 9.0 mi North 12.7 mph - 0.09 in Rain , Thunderstorm Light Thunderstorms and Rain